Location: Brotuna
(46.2000°N, 22.6000°E)
Time: 22:46:01
(UTC+00:00)

Cosmos 864 Rocket - Pass Details

Date: 09 April 2020
Orbit: 953 x 992 km, 82.9° (Epoch: 04 June)

Event Time Altitude Azimuth Distance (km) Brightness Sun altitude
Rises 19:23:56 0° 350° (N) 3,676 8.3 -21.7°
Reaches altitude 10° 19:26:27 10° 350° (N) 2,719 7.5 -22.0°
Maximum altitude 19:32:41 82° 264° (W) 977 4.5 -22.8°
Enters shadow 19:35:32 34° 180° (S) 1,520 5.2 -23.2°
